Location: Grust
(42.8833°N, 0.0333°W)
Time: 14:34:38
(UTC+00:00)

Aureole 3 - Pass Details

Date: 25 October 2020
Orbit: 382 x 1232 km, 82.5° (Epoch: 25 November)

Event Time Altitude Azimuth Distance (km) Brightness Sun altitude
Rises 17:26:29 0° 151° (SSE) 2,532 6.5 -5.2°
Reaches altitude 10° 17:29:19 10° 128° (SE) 1,546 5.2 -5.8°
Maximum altitude 17:31:16 15° 91° (E) 1,224 4.5 -6.1°
Drops below altitude 10° 17:33:07 10° 54° (NE) 1,450 4.9 -6.4°
Sets 17:35:38 0° 29° (NNE) 2,277 6.1 -6.9°
